Hot Springs, VA

11:19 PM EDT on September 25, 2016 (GMT -0400)
Ingalls

Weather History for KHSP - January, 2000

Change the Weather History Date:

Sunday, January 2, 2000

  Actual Average Record
Temperature  
Mean Temperature 48 °F -  
Max Temperature 55 °F 34 °F 55 °F (2000)
Min Temperature 41 °F 21 °F 6 °F (2001)
Degree Days  
Heating Degree Days 17    
Moisture  
Dew Point 45 °F    
Average Humidity 89    
Maximum Humidity 100    
Minimum Humidity 72    
Precipitation  
Precipitation 0.00 in - - ()
Sea Level Pressure  
Sea Level Pressure 30.16 in    
Wind  
Wind Speed 10 mph (SW)    
Max Wind Speed 15 mph    
Max Gust Speed 20 mph    
Visibility 8 miles    
Events      
Averages and records for this station are not official NWS values.
T = Trace of Precipitation, MM = Missing Value Source: NWS Daily Summary

Daily Weather History Graph

Daily Weather History Graph

Search for Another Location

Airport or City:

Trip Planner

Search our weather history database for the weather conditions in past years. The results will help you decide how hot, cold, wet, or windy it might be!

Date:

Astronomy

Jan. 02, 2000 Rise Set
Actual Time 7:35 AM EST 5:11 PM EST
Civil Twilight 7:06 AM EST 5:40 PM EST
Nautical Twilight 6:33 AM EST 6:13 PM EST
Astronomical Twilight 6:01 AM EST 6:45 PM EST
Moon 3:49 AM EST (1/2) 2:34 PM EST (1/2)
Length of Visible Light 10h 34m
Length of Day
9h 35m
Waning Crescent, 14% of the Moon is Illuminated
Jan 2
Waning Crescent
Jan 6
New
Jan 14
First Quarter
Jan 20
Full
Jan 28
Last Quarter

Hourly Weather History & Observations

Time (EST) Temp. Windchill Dew Point Humidity Pressure Visibility Wind Dir Wind Speed Gust Speed Precip Events Conditions
12:19 AM 42.8 °F 37.5 °F 42.8 °F 100% 30.20 in 0.2 mi South 9.2 mph - N/A   Overcast
12:38 AM 41.0 °F 37.1 °F 41.0 °F 100% 30.20 in 0.2 mi SW 5.8 mph - N/A   Overcast
12:58 AM 41.0 °F 37.1 °F 41.0 °F 100% 30.19 in 1.8 mi South 5.8 mph - N/A   Mostly Cloudy
1:18 AM 41.0 °F 35.8 °F 41.0 °F 100% 30.19 in 0.2 mi South 8.1 mph - N/A   Overcast
1:38 AM 41.0 °F 34.3 °F 41.0 °F 100% 30.20 in 0.8 mi SSW 11.5 mph 16.1 mph N/A   Overcast
1:58 AM 41.0 °F 35.2 °F 41.0 °F 100% 30.20 in 4.0 mi SW 9.2 mph - N/A   Scattered Clouds
2:18 AM 42.8 °F 37.5 °F 42.8 °F 100% 30.20 in 5.0 mi SW 9.2 mph - N/A   Clear
2:38 AM 42.8 °F 36.6 °F 41.0 °F 93% 30.20 in 4.0 mi SSW 11.5 mph - N/A   Clear
3:00 AM 42.8 °F 38.0 °F 42.8 °F 100% 30.19 in 4.0 mi SSW 8.1 mph - N/A   Clear
3:18 AM 42.8 °F 37.0 °F 42.8 °F 100% 30.20 in 5.0 mi SW 10.4 mph - N/A   Clear
3:38 AM 41.0 °F 34.7 °F 41.0 °F 100% 30.20 in 7.0 mi WSW 10.4 mph - N/A   Clear
3:58 AM 42.8 °F 36.6 °F 42.8 °F 100% 30.19 in 4.0 mi WSW 11.5 mph - N/A   Scattered Clouds
4:18 AM 42.8 °F 35.8 °F 42.8 °F 100% 30.19 in 4.0 mi WSW 13.8 mph - N/A   Scattered Clouds
4:38 AM 42.8 °F 35.4 °F 42.8 °F 100% 30.18 in 10.0 mi WSW 15.0 mph 19.6 mph N/A   Clear
4:58 AM 42.8 °F 35.8 °F 42.8 °F 100% 30.18 in 10.0 mi SW 13.8 mph 19.6 mph N/A   Clear
5:20 AM 42.8 °F 35.4 °F 42.8 °F 100% 30.19 in 7.0 mi WSW 15.0 mph 18.4 mph N/A   Clear
5:38 AM 42.8 °F 36.2 °F 42.8 °F 100% 30.19 in 5.0 mi WSW 12.7 mph - N/A   Clear
5:58 AM 42.8 °F 35.8 °F 42.8 °F 100% 30.18 in 7.0 mi WSW 13.8 mph - N/A   Clear
6:18 AM 42.8 °F 36.6 °F 42.8 °F 100% 30.18 in 10.0 mi SW 11.5 mph - N/A   Clear
6:40 AM 42.8 °F 37.5 °F 42.8 °F 100% 30.18 in 10.0 mi SW 9.2 mph - N/A   Clear
6:58 AM 44.6 °F 40.2 °F 42.8 °F 93% 30.19 in 10.0 mi SW 8.1 mph 17.3 mph N/A   Clear
7:18 AM 42.8 °F 36.6 °F 41.0 °F 93% 30.19 in 10.0 mi WSW 11.5 mph - N/A   Clear
7:38 AM 44.6 °F 38.1 °F 42.8 °F 93% 30.19 in 10.0 mi WSW 13.8 mph - N/A   Clear
7:58 AM 44.6 °F 37.8 °F 42.8 °F 93% 30.19 in 10.0 mi WSW 15.0 mph - N/A   Clear
8:18 AM 44.6 °F 38.4 °F 42.8 °F 93% 30.19 in 10.0 mi SW 12.7 mph 18.4 mph N/A   Clear
8:38 AM 46.4 °F 41.1 °F 44.6 °F 93% 30.19 in 10.0 mi WSW 11.5 mph - N/A   Clear
8:58 AM 46.4 °F 41.1 °F 44.6 °F 93% 30.20 in 10.0 mi SW 11.5 mph 18.4 mph N/A   Clear
9:18 AM 48.2 °F - 44.6 °F 87% 30.20 in 10.0 mi SW 10.4 mph - N/A   Clear
9:38 AM 48.2 °F - 44.6 °F 87% 30.20 in 10.0 mi WSW 12.7 mph 18.4 mph N/A   Clear
10:00 AM 50.0 °F - 46.4 °F 87% 30.21 in 10.0 mi SW 10.4 mph 16.1 mph N/A   Clear
10:18 AM 50.0 °F - 46.4 °F 87% 30.21 in 10.0 mi SSW 10.4 mph 17.3 mph N/A   Clear
10:38 AM 51.8 °F - 46.4 °F 82% 30.20 in 10.0 mi SW 8.1 mph - N/A   Clear
10:58 AM 51.8 °F - 46.4 °F 82% 30.20 in 10.0 mi SW 6.9 mph - N/A   Clear
11:18 AM 51.8 °F - 46.4 °F 82% 30.19 in 10.0 mi SW 11.5 mph 18.4 mph N/A   Clear
11:38 AM 53.6 °F - 46.4 °F 77% 30.18 in 10.0 mi SW 11.5 mph - N/A   Clear
11:58 AM 53.6 °F - 46.4 °F 77% 30.17 in 10.0 mi SW 8.1 mph - N/A   Clear
12:18 PM 53.6 °F - 44.6 °F 72% 30.16 in 10.0 mi SW 13.8 mph 17.3 mph N/A   Clear
12:40 PM 55.4 °F - 46.4 °F 72% 30.15 in 10.0 mi WSW 12.7 mph 19.6 mph N/A   Clear
12:59 PM 55.4 °F - 46.4 °F 72% 30.14 in 10.0 mi WSW 13.8 mph 18.4 mph N/A   Clear
1:18 PM 55.4 °F - 46.4 °F 72% 30.13 in 10.0 mi South 8.1 mph - N/A   Clear
1:38 PM 55.4 °F - 46.4 °F 72% 30.13 in 10.0 mi SSW 8.1 mph - N/A   Clear
1:59 PM 55.4 °F - 46.4 °F 72% 30.12 in 10.0 mi SSW 8.1 mph - N/A   Clear
2:18 PM 55.4 °F - 48.2 °F 77% 30.11 in 10.0 mi South 6.9 mph - N/A   Clear
2:38 PM 55.4 °F - 46.4 °F 72% 30.11 in 10.0 mi SSW 6.9 mph - N/A   Clear
2:59 PM 55.4 °F - 48.2 °F 77% 30.10 in 10.0 mi South 8.1 mph - N/A   Clear
3:18 PM 55.4 °F - 48.2 °F 77% 30.10 in 10.0 mi South 8.1 mph - N/A   Clear
3:38 PM 53.6 °F - 48.2 °F 82% 30.10 in 10.0 mi South 8.1 mph - N/A   Clear
3:58 PM 53.6 °F - 48.2 °F 82% 30.10 in 10.0 mi South 10.4 mph 16.1 mph N/A   Clear
4:18 PM 53.6 °F - 48.2 °F 82% 30.09 in 10.0 mi South 10.4 mph - N/A   Clear
4:38 PM 51.8 °F - 48.2 °F 88% 30.10 in 10.0 mi South 8.1 mph - N/A   Clear
4:58 PM 50.0 °F - 48.2 °F 94% 30.10 in 10.0 mi South 11.5 mph - N/A   Clear
5:18 PM 50.0 °F - 48.2 °F 94% 30.11 in 7.0 mi SSW 10.4 mph - N/A   Clear
5:40 PM 48.2 °F - 46.4 °F 93% 30.10 in 7.0 mi SSW 11.5 mph 16.1 mph N/A   Clear
5:58 PM 48.2 °F - 46.4 °F 93% 30.11 in 7.0 mi SSW 9.2 mph 16.1 mph N/A   Clear
6:20 PM 48.2 °F - 46.4 °F 93% 30.11 in 10.0 mi SSW 13.8 mph 17.3 mph N/A   Clear
6:38 PM 50.0 °F - 46.4 °F 87% 30.11 in 10.0 mi SW 8.1 mph - N/A   Clear
6:59 PM 51.8 °F - 44.6 °F 76% 30.12 in 10.0 mi SW 11.5 mph - N/A   Clear
7:18 PM 51.8 °F - 44.6 °F 76% 30.12 in 10.0 mi SW 13.8 mph 19.6 mph N/A   Clear
7:38 PM 51.8 °F - 44.6 °F 76% 30.12 in 10.0 mi WSW 15.0 mph 19.6 mph N/A   Clear
7:58 PM 51.8 °F - 44.6 °F 76% 30.13 in 10.0 mi WSW 15.0 mph 20.7 mph N/A   Clear
8:18 PM 51.8 °F - 44.6 °F 76% 30.13 in 10.0 mi WSW 13.8 mph 21.9 mph N/A   Clear
8:38 PM 50.0 °F - 44.6 °F 82% 30.14 in 10.0 mi WSW 15.0 mph 20.7 mph N/A   Clear
8:58 PM 50.0 °F - 46.4 °F 87% 30.14 in 10.0 mi WSW 23.0 mph 27.6 mph N/A   Clear
9:18 PM 50.0 °F - 44.6 °F 82% 30.13 in 10.0 mi West 18.4 mph 27.6 mph N/A   Clear
9:38 PM 50.0 °F - 44.6 °F 82% 30.14 in 10.0 mi WSW 20.7 mph 24.2 mph N/A   Clear
9:58 PM 48.2 °F - 44.6 °F 87% 30.13 in 10.0 mi WSW 17.3 mph 24.2 mph N/A   Clear
10:20 PM 48.2 °F - 44.6 °F 87% 30.13 in 10.0 mi West 20.7 mph 25.3 mph N/A   Clear
10:38 PM 48.2 °F - 44.6 °F 87% 30.13 in 10.0 mi West 20.7 mph 25.3 mph N/A   Clear
10:58 PM 48.2 °F - 44.6 °F 87% 30.13 in 10.0 mi West 20.7 mph 27.6 mph N/A   Clear
11:18 PM 48.2 °F - 44.6 °F 87% 30.13 in 10.0 mi West 21.9 mph 27.6 mph N/A   Clear
11:38 PM 50.0 °F - 44.6 °F 82% 30.12 in 10.0 mi West 21.9 mph 27.6 mph N/A   Clear
11:58 PM 50.0 °F - 44.6 °F 82% 30.12 in 10.0 mi West 21.9 mph - N/A   Clear